Regional Weather Roundup
Issued by NWS

Home | Current Version | Previous Version | Graphics & Text | Print | Product List | Glossary On
Versions: 1 2 3 4 5 6 7 8 9 10 11 12 13 14 15 16 17 18 19 20 21 22 23 24 25 26 27 28 29 30 31 32 33 34 35 36 37 38 39 40 41 42 43 44 45 46 47 48 49 50
000
ASUS44 KMEG 251110
RWRTN
TENNESSEE HOURLY STATE WEATHER ROUNDUP
NATIONAL WEATHER SERVICE MEMPHIS TN
600 AM CDT SAT MAR 25 2017

TNZ002-004-019-021-049-052-054-088>092-251200-
WEST TENNESSEE

CITY           SKY/WX    TMP DP  RH WIND       PRES   REMARKS
MEMPHIS INTL   LGT RAIN  61  60  97 S10       29.93F
NWS MEMPHIS      N/A     61 N/A N/A MISG        N/A
JACKSON        CLOUDY    68  52  56 SE10G17   29.97S
DYERSBURG      LGT RAIN  56  55  97 E7        29.97F
SOMERVILLE     CLOUDY    64  59  82 S14G24    29.95R HAZE
BOLIVAR        CLOUDY    66  52  59 SE16G24   29.96S
PARIS          CLOUDY    63  52  67 N8        30.02S
HUNTINGDON     CLOUDY    66  54  63 SW7G16    30.00S
SAVANNAH       CLOUDY    66  52  59 S14G22    30.01S
$$

TNZ008-025-027-028-033-062-065-066-251200-
NORTH MIDDLE TENNESSEE

CITY           SKY/WX    TMP DP  RH WIND       PRES   REMARKS
NASHVILLE      MOCLDY    66  52  60 S17G24    30.08R
PORTLAND       PTCLDY    64  50  59 S14G20    30.07R
CLARKSVILLE    CLOUDY    66  53  63 S15G23    30.02S
SMYRNA         PTCLDY    64  52  64 S10       30.10R
COOKEVILLE     PTCLDY    63  48  59 S12G17    30.14R
GALLATIN       MOCLDY    64  50  59 SE8       30.11S
CROSSVILLE     CLEAR     58  46  64 S14G26    30.19S
$$

TNZ061-075-076-078-094-096-097-251200-
SOUTH MIDDLE TENNESSEE

CITY           SKY/WX    TMP DP  RH WIND       PRES   REMARKS
FAYETTEVILLE   CLOUDY    63  52  67 S14G20    30.13F
TULLAHOMA      CLEAR     63  46  55 S10       30.15S
WINCHESTER     CLEAR     61  48  63 S14       30.16R
MCMINNVILLE    CLEAR     63  48  59 SE5       30.14S
COLUMBIA       PTCLDY    64  57  77 S10       30.06S
SHELBYVILLE    CLEAR     64  52  63 S13       30.12S
$$

TNZ017-018-042-046-047-251200-
NORTHEAST TENNESSEE

CITY           SKY/WX    TMP DP  RH WIND       PRES   REMARKS
TRI CITIES     CLOUDY    51  46  83 CALM      30.25R
ELIZABETHTON   CLOUDY    52  46  82 NE3       30.26R
$$

TNZ012-013-036-069-073-074-251200-
CENTRAL EAST TENNESSEE

CITY           SKY/WX    TMP DP  RH WIND       PRES   REMARKS
KNOXVILLE      CLOUDY    58  46  64 CALM      30.22R
OAK RIDGE      CLOUDY    53  46  77 SW3       30.24R
DOWNTOWN KNOXV CLOUDY    50  48  93 CALM      30.23S
GATLINBURG     CLEAR     52  46  82 CALM      30.22S
MORRISTOWN     MOCLDY    52  48  87 CALM      30.22S
JACKSBORO      PTCLDY    61  46  59 VRB3      30.23S
$$

TNZ083-085-099-251200-
SOUTHEAST TENNESSEE

CITY           SKY/WX    TMP DP  RH WIND       PRES   REMARKS
CHATTANOOGA    MOCLDY    62  48  60 SE9       30.22S
$$

SKY/WX REPORTED AS FAIR MEANS FEW OR NO CLOUDS BELOW
12 THOUSAND FEET.





USA.gov is the U.S. government's official web portal to all federal, state and local government web resources and services.